SCP
0 0 0 0 0 -0 0 0 0 0 0 0 0 0 0 0 0 0 0 0 0 0 0 0 0 0 0 0 0 0 0 0 0 0 0 0 0 0 0 0 0 0 0 0
0 0 0 0 0 0 0 0 0 0 0 0 0 0 0 0 0 0 0 0 0 0 0 0 0 0 0 0 0 0 0 0 0 0 0 0 0 0 0 0 0 0 0 0
0 0 0 0 0 0 0 0 0 0 0 0 0 0 0 0 0 0 0 0 0 0 0 0 0 0 0 0 0 0 0 0 0 0 0 0 0 0 0 0 0 0 0 0
0 0 0 0 0 0 0 0 0 0 0 0 0 0 0 0 0 0 0 0 0 0 0 0 0 0 0 0 0 0 0 0 0 0 0 0 0 0 0 0 0 0 0 0
0 0 0 0 0 -0 0 0 0 0 0 0 0 0 0 0 0 0 0 0 0 0 0 0 0 0 0 0 0 0 0 0 0 0 0 0 0 0 0 0 0 0 0 0
0 0 0 0 0 0 0 0 0 0 0 0 0 0 0 0 0 0 0 0 0 0 0 0 0 0 0 0 0 0 0 0 0 0 0 0 0 0 0 0 0 0 0 0
0 0 0 0 0 0 0 0 0 0 0 0 0 0 0 0 0 0 0 0 0 0 0 0 0 0 0 0 0 0 0 0 0 0 0 0 0 -0 0 0 0 0 0 0
0 0 0 0 0 0 0 0 0 0 0 0 0 0 0 0 0 0 0 0 0 0 0 0 0 0 0 0 0 0 0 0 0 0 0 0 0 0 0 0 0 0 0 0
0 0 0 0 0 0 0 0 0 0 0 0 0 0 0 0 0 0 0 0 0 0 0 0 0 0 0 0 0 0 0 0 0 0 0 0 0 0 0 0 0 0 0 0
0 0 0 0 0 0 0 0 0 0 0 0 0 0 0 0 0 0 0 0 0 0 0 0 0 0 0 0 0 0 0 0 0 0 0 0 0 0 0 0 0 0 0 0
0 0 0 0 0 0 0 0 0 0 0 0 0 0 0 0 0 0 0 0 0 0 0 0 0 0 0 0 0 0 0 0 0 0 0 0 0 0 0 0 0 0 0 0
0 0 0 0 0 0 0 0 0 0 0 0 -0 -0 -0 0 0 0 0 0 0 0 0 0 0 0 0 0 0 -0 0 0 0 0 0 0 0 0 0 0 -0 -0 0 0
0 0 0 0 0 0 0 0 0 0 0 0 0 0 0 0 0 0 0 0 0 0 0 0 0 0 0 0 0 -0 -0 -0 0 0 0 0 0 0 0 0 0 0 0 0
0 0 0 0 0 0 0 0 0 0 0 0 0 0 0 0 0 0 0 0 0 0 0 0 0 0 0 -0 0 0 0 -0 0 -0 0 0 0 0 0 0 0 0 0 0
0 0 0 0 0 0 0 0 0 0 0 0 0 0 0 0 0 0 0 0 0 0 0 0 0 0 0 -0 -0 0 0 0 0 -0 -0 0 0 0 0 -0 -0 0 0 0
0 0 0 0 0 0 0 0 0 0 0 0 0 0 -0 0 0 0 0 0 0 0 0 0 0 -0 0 0 0 -0 0 0 0 0 0 0 0 -0 0 0 -0 -0 0 0
0 0 0 0 0 0 0 0 0 0 0 0 0 0 0 0 0 0 0 0 0 0 0 0 0 -0 0 0 0 0 -0 0 0 0 0 0 0 -0 -0 -0 0 0 0 -0
0 -0 -0 0 0 0 0 0 0 0 0 0 0 0 -0 0 -0 0 0 0 0 0 0 0 0 0 0 0 0 -0 0 0 0 -0 -0 0 0 0 0 0 0 0 0 -0
-0 -0 -0 0 0 0 0 0 0 0 0 0 0 0 -0 0 0 0 0 0 0 0 0 0 0 0 0 0 0 -0 -0 -0 0 -0 -0 0 0 0 -0 -0 0 -0 0 0
-0 -0 0 0 0 0 0 0 0 0 0 0 0 -0 0 0 0 0 0 0 0 0 0 0 -0 0 -0 0 0 0 0 0 -0 -0 -0 -0 -0 -0 0 0 0 0 -0 -0
0 0 0 0 0 0 0 0 0 0 0 0 0 0 0 0 0 0 0 0 0 0 0 -0 -0 0 0 0 0 0 0 0 0 0 -0 -0 0 0 -0 0 0 0 -0 -0
0 0 0 0 0 0 0 0 0 0 -0 0 0 -0 -0 0 0 0 0 0 0 0 -0 -0 0 0 0 0 0 0 0 0 0 0 0 0 -0 0 0 0 0 0 0 0
0 0 0 0 0 0 0 -0 0 0 -0 0 0 0 0 0 0 0 0 0 0 0 0 0 0 0 0 0 0 0 -0 0 0 -0 -0 -0 0 -0 -0 0 0 0 0 0
0 0 0 0 0 0 0 -0 0 -0 0 0 0 0 0 0 0 0 0 0 0 0 0 0 0 0 0 0 -0 0 -0 -0 -0 -0 0 0 0 0 -0 0 -0 0 0 0
0 0 0 0 -0 0 -0 -0 -0 -0 -0 0 0 0 -0 0 0 0 0 0 0 0 0 0 0 0 -0 -0 -0 0 0 0 0 0 0 0 0 -0 0 0 -0 0 0 0
0 0 0 0 0 0 0 -0 0 0 0 0 0 0 0 0 0 0 0 0 0 0 0 0 0 -0 -0 -0 -0 0 0 0 0 0 0 0 0 0 0 0 0 0 0 0
0 0 -0 0 0 0 -0 -0 0 0 0 0 0 0 0 0 0 0 0 0 0 0 0 0 0 -0 -0 0 0 0 0 0 0 0 0 0 0 0 0 0 0 0 0 0
Wind_Speed_500mb
61 63 65 65 69 66 47 16 10 22 25 9 9 7 10 8 15 18 10 15 22 23 24 27 31 33 33 36 19 16 21 15 32 41 43 49 49 47 40 22 23 10 21 36
59 60 61 57 53 60 60 26 18 12 17 6 8 11 17 4 10 14 10 16 19 21 18 16 17 20 25 31 26 16 15 10 24 27 26 33 33 32 31 28 5 22 22 24
55 57 56 51 44 41 37 15 7 10 7 9 12 16 20 9 10 7 6 20 22 19 21 18 18 29 24 32 26 14 7 15 29 32 38 39 48 53 48 38 14 33 38 50
53 51 51 47 40 23 25 10 9 7 10 11 16 14 19 21 17 2 15 10 11 16 16 20 27 30 25 34 38 37 23 33 36 41 43 42 49 55 49 49 50 42 51 46
47 47 47 46 39 18 9 17 16 28 35 24 16 10 16 8 17 7 19 25 24 19 22 25 32 32 28 30 30 30 27 31 37 48 42 45 55 50 47 52 52 54 52 55
44 43 41 39 36 22 17 25 20 20 24 27 13 8 10 13 20 19 16 13 19 25 26 32 33 37 45 44 36 34 34 29 29 44 38 42 42 39 44 45 39 34 23 29
40 40 37 32 27 20 16 27 26 25 21 23 17 19 14 20 24 27 29 33 28 30 28 34 40 48 56 56 45 45 37 33 24 28 31 38 29 35 27 21 30 40 28 29
35 37 37 33 22 15 13 23 21 22 16 37 33 31 13 19 31 30 36 27 25 13 24 18 16 24 32 32 40 42 36 29 16 7 18 36 51 14 11 16 43 18 17 27
33 32 31 31 26 17 6 20 19 21 23 5 35 32 29 23 23 21 25 7 4 7 16 16 24 23 30 15 16 14 3 17 10 14 12 13 26 3 9 32 33 6 27 27
30 28 27 25 26 23 18 16 24 18 34 41 15 23 21 28 26 15 31 15 12 6 14 19 22 25 26 21 25 21 15 20 17 22 26 22 11 10 28 20 17 32 43 52
28 26 24 21 21 20 18 15 20 19 28 54 45 30 33 31 24 18 18 18 2 16 17 12 17 15 14 20 24 27 29 22 23 20 26 20 6 15 12 27 48 58 44 52
25 23 22 22 22 20 20 14 18 24 28 45 53 54 55 52 45 37 28 25 16 14 12 15 11 19 21 30 25 23 16 15 7 14 13 33 26 38 33 40 34 42 47 50
22 22 23 23 21 22 23 22 21 24 29 57 30 35 31 21 24 28 32 27 15 20 11 16 12 17 16 19 21 29 29 32 20 32 31 42 44 41 44 44 46 46 41 43
24 23 16 14 16 19 22 19 22 19 21 16 6 10 6 16 18 20 29 35 25 15 13 10 6 7 21 19 30 28 33 37 29 34 36 44 36 52 45 54 54 46 39 36
19 17 19 21 22 25 19 23 27 28 15 17 44 56 33 33 37 37 19 24 22 23 15 10 9 18 18 24 24 23 34 21 12 16 46 41 50 59 56 58 55 43 37 38
16 18 19 19 23 16 18 8 12 23 17 15 11 27 27 27 21 17 35 23 20 16 6 8 19 28 15 8 13 29 28 22 32 34 44 48 56 59 56 53 49 44 34 35
23 23 25 26 28 23 18 11 7 8 4 9 15 15 13 12 17 20 24 26 19 16 7 15 31 29 9 8 23 40 34 39 42 43 46 51 50 54 58 47 39 38 28 34
18 20 21 23 25 28 24 22 30 27 19 12 8 11 18 18 23 25 17 17 23 14 13 11 15 7 12 9 22 26 37 42 47 49 50 45 50 47 43 40 35 33 33 41
16 20 21 25 16 17 24 26 22 20 21 9 12 15 3 8 15 8 17 19 10 13 13 11 7 5 9 22 30 36 38 38 41 43 43 43 44 48 45 44 41 34 41 43
19 16 11 9 7 11 9 5 9 13 17 15 15 32 21 23 29 4 5 12 6 7 12 13 6 7 34 27 28 32 33 36 40 39 42 44 42 42 39 39 39 36 41 44
7 6 5 9 12 6 9 8 12 15 10 16 20 41 27 27 15 8 8 1 4 5 6 10 7 4 7 17 21 25 32 32 33 36 33 31 35 39 35 36 33 35 36 44
10 17 24 19 12 13 12 9 12 14 10 16 20 14 21 7 7 10 5 5 4 8 22 7 7 2 8 19 25 29 30 35 35 33 33 33 35 33 27 32 34 35 37 41
12 9 8 9 11 4 11 14 9 5 19 4 14 10 7 10 12 6 5 7 8 10 6 4 4 12 25 22 28 28 31 33 33 33 32 32 34 32 27 32 33 33 43 49
9 9 7 9 11 10 6 13 4 10 10 16 9 7 12 14 12 7 7 8 8 3 5 5 12 19 18 24 29 26 30 32 32 33 32 34 36 37 36 30 31 40 44 42
10 11 8 14 17 14 21 13 5 15 19 28 21 18 13 8 5 5 6 5 4 5 7 13 22 20 19 26 26 25 29 31 31 33 33 35 36 37 37 37 34 38 43 51
10 13 17 25 21 13 16 10 10 16 21 23 14 5 5 9 5 4 5 6 6 5 11 23 18 17 21 25 24 24 26 29 28 30 32 33 35 35 37 38 39 37 34 47
10 15 21 26 32 20 11 9 6 16 24 5 5 6 5 7 6 5 4 6 11 20 23 19 15 18 19 17 20 20 23 25 29 27 29 32 34 33 37 38 38 40 34 39
Wind_Direction_500mb
342 343 344 345 343 346 358 356 292 345 346 267 245 354 1 357 0 348 322 296 292 299 321 310 302 298 303 324 26 336 336 301 287 279 291 294 289 286 285 285 278 259 285 271
340 343 342 345 349 347 350 328 298 329 345 329 4 21 329 302 358 350 340 303 318 334 303 296 286 306 318 335 356 28 8 296 312 298 297 260 281 302 308 294 125 269 288 276
337 340 341 344 348 344 346 311 304 348 347 52 358 0 295 307 142 318 303 308 302 286 279 277 281 294 300 312 318 80 323 270 265 274 283 303 297 295 295 302 289 278 269 289
333 338 341 344 347 352 345 288 23 10 313 33 337 299 308 294 294 129 322 299 304 324 313 297 300 292 312 313 302 286 268 267 269 275 283 283 287 286 292 287 287 284 289 281
331 336 341 344 348 358 351 346 348 336 290 274 296 281 274 298 302 324 307 306 305 324 302 296 299 304 300 299 298 290 286 280 282 281 288 284 279 284 288 282 280 278 276 275
328 334 340 345 348 2 343 346 325 297 296 285 248 288 343 313 314 289 299 298 305 298 304 321 306 288 281 274 279 278 279 275 277 277 284 288 282 284 283 290 305 342 333 335
325 330 335 343 349 355 355 334 327 304 299 301 305 319 296 291 292 298 302 303 292 290 320 312 292 274 267 259 256 249 253 257 262 270 284 276 273 273 342 339 305 333 329 332
321 325 329 333 346 341 334 349 332 318 305 312 304 319 320 308 285 271 270 276 281 352 314 294 279 295 273 247 232 230 221 243 275 259 263 279 292 336 360 352 307 327 340 340
316 320 324 328 333 341 312 340 327 310 294 222 339 314 296 286 282 288 286 91 345 322 286 278 283 284 296 298 288 226 60 269 273 277 271 279 299 169 313 314 286 43 324 308
309 314 316 319 323 333 339 323 326 312 294 284 322 315 321 314 299 290 291 296 300 204 276 265 270 290 318 311 316 324 303 285 249 270 286 290 15 352 329 278 318 324 321 318
303 306 309 314 316 324 341 302 310 317 300 286 284 296 281 269 252 264 331 309 177 274 256 287 304 313 332 313 311 307 298 296 291 302 298 284 180 316 304 331 328 329 316 311
297 300 301 300 297 298 308 307 307 299 281 271 286 280 270 257 256 274 279 281 297 308 314 316 328 308 292 285 284 290 308 331 201 248 281 281 343 322 339 329 318 312 314 309
295 297 299 299 295 285 282 288 300 297 297 306 285 278 291 242 245 237 244 258 307 306 341 326 317 302 312 293 297 315 312 321 314 306 304 318 330 322 326 330 326 326 315 310
289 297 299 305 303 304 299 285 286 289 301 290 306 355 281 249 250 236 237 244 276 302 308 314 287 284 305 297 307 299 293 301 296 299 296 329 315 317 322 320 317 318 318 320
291 291 286 282 283 298 297 289 272 262 250 301 301 303 292 258 249 234 226 230 238 251 267 257 270 270 281 275 275 274 286 313 304 298 312 304 306 311 311 308 304 303 302 314
285 285 286 286 290 296 320 303 88 220 230 296 310 310 273 244 236 227 211 216 223 235 257 267 254 260 273 279 284 297 303 315 318 307 309 304 297 300 300 299 303 302 302 306
281 283 281 282 284 281 266 273 353 127 330 280 294 288 203 214 185 192 196 204 205 215 220 242 250 254 233 262 268 284 306 317 311 312 308 301 308 305 308 302 306 300 301 308
284 293 293 290 285 279 273 268 256 260 274 258 270 272 252 204 214 199 198 197 199 212 232 256 256 244 208 254 268 305 322 317 318 317 317 305 297 305 334 335 329 330 327 324
304 299 299 294 269 255 245 252 264 228 222 253 249 274 339 262 284 203 185 190 195 228 204 217 203 190 227 248 293 309 309 314 306 318 315 330 342 338 340 338 335 326 321 321
302 309 232 245 226 268 275 233 212 212 209 232 254 261 271 277 292 289 175 194 220 199 217 137 216 245 251 272 280 311 316 316 328 328 338 347 343 341 339 338 338 342 333 330
277 257 265 341 323 262 221 221 218 179 219 219 242 236 250 256 272 293 298 342 212 245 168 201 203 228 272 306 327 326 333 335 350 348 343 348 342 337 341 339 341 336 332 336
278 298 294 279 244 226 231 209 203 204 242 187 223 216 212 215 221 226 309 282 296 251 171 216 158 328 353 10 344 343 355 2 355 356 357 353 349 354 3 356 350 355 348 353
287 249 247 217 231 280 235 234 211 239 350 174 203 195 186 214 207 225 193 238 243 216 187 115 70 35 23 357 358 4 7 5 7 8 7 5 1 13 21 13 2 3 1 1
245 238 241 240 210 232 319 336 351 294 318 296 257 253 217 192 190 204 215 230 258 256 104 92 69 39 13 353 18 11 10 12 13 13 10 10 11 13 14 15 17 11 12 4
252 244 239 227 267 218 252 280 281 262 254 266 278 230 215 216 207 228 224 242 249 39 80 77 54 33 8 359 23 13 13 14 14 14 14 13 16 20 18 18 15 12 14 13
243 245 265 280 281 334 337 320 317 260 266 266 274 314 268 230 180 164 204 274 86 109 80 66 55 31 17 12 18 14 14 16 14 14 17 16 20 21 22 22 21 18 22 15
240 241 258 269 279 283 294 267 231 276 280 345 330 308 290 342 251 229 181 86 130 99 79 75 47 28 6 19 13 15 14 16 16 12 19 20 22 22 21 23 26 24 21 20
Wind_Speed_850mb
61 63 65 65 69 66 47 16 10 22 25 9 9 7 10 8 15 18 10 15 22 23 24 27 31 33 33 36 19 16 21 15 32 41 43 49 49 47 40 22 23 10 21 36
59 60 61 57 53 60 60 26 18 12 17 6 8 11 17 4 10 14 10 16 19 21 18 16 17 20 25 31 26 16 15 10 24 27 26 33 33 32 31 28 5 22 22 24
55 57 56 51 44 41 37 15 7 10 7 9 12 16 20 9 10 7 6 20 22 19 21 18 18 29 24 32 26 14 7 15 29 32 38 39 48 53 48 38 14 33 38 50
53 51 51 47 40 23 25 10 9 7 10 11 16 14 19 21 17 2 15 10 11 16 16 20 27 30 25 34 38 37 23 33 36 41 43 42 49 55 49 49 50 42 51 46
47 47 47 46 39 18 9 17 16 28 35 24 16 10 16 8 17 7 19 25 24 19 22 25 32 32 28 30 30 30 27 31 37 48 42 45 55 50 47 52 52 54 52 55
44 43 41 39 36 22 17 25 20 20 24 27 13 8 10 13 20 19 16 13 19 25 26 32 33 37 45 44 36 34 34 29 29 44 38 42 42 39 44 45 39 34 23 29
40 40 37 32 27 20 16 27 26 25 21 23 17 19 14 20 24 27 29 33 28 30 28 34 40 48 56 56 45 45 37 33 24 28 31 38 29 35 27 21 30 40 28 29
35 37 37 33 22 15 13 23 21 22 16 37 33 31 13 19 31 30 36 27 25 13 24 18 16 24 32 32 40 42 36 29 16 7 18 36 51 14 11 16 43 18 17 27
33 32 31 31 26 17 6 20 19 21 23 5 35 32 29 23 23 21 25 7 4 7 16 16 24 23 30 15 16 14 3 17 10 14 12 13 26 3 9 32 33 6 27 27
30 28 27 25 26 23 18 16 24 18 34 41 15 23 21 28 26 15 31 15 12 6 14 19 22 25 26 21 25 21 15 20 17 22 26 22 11 10 28 20 17 32 43 52
28 26 24 21 21 20 18 15 20 19 28 54 45 30 33 31 24 18 18 18 2 16 17 12 17 15 14 20 24 27 29 22 23 20 26 20 6 15 12 27 48 58 44 52
25 23 22 22 22 20 20 14 18 24 28 45 53 54 55 52 45 37 28 25 16 14 12 15 11 19 21 30 25 23 16 15 7 14 13 33 26 38 33 40 34 42 47 50
22 22 23 23 21 22 23 22 21 24 29 57 30 35 31 21 24 28 32 27 15 20 11 16 12 17 16 19 21 29 29 32 20 32 31 42 44 41 44 44 46 46 41 43
24 23 16 14 16 19 22 19 22 19 21 16 6 10 6 16 18 20 29 35 25 15 13 10 6 7 21 19 30 28 33 37 29 34 36 44 36 52 45 54 54 46 39 36
19 17 19 21 22 25 19 23 27 28 15 17 44 56 33 33 37 37 19 24 22 23 15 10 9 18 18 24 24 23 34 21 12 16 46 41 50 59 56 58 55 43 37 38
16 18 19 19 23 16 18 8 12 23 17 15 11 27 27 27 21 17 35 23 20 16 6 8 19 28 15 8 13 29 28 22 32 34 44 48 56 59 56 53 49 44 34 35
23 23 25 26 28 23 18 11 7 8 4 9 15 15 13 12 17 20 24 26 19 16 7 15 31 29 9 8 23 40 34 39 42 43 46 51 50 54 58 47 39 38 28 34
18 20 21 23 25 28 24 22 30 27 19 12 8 11 18 18 23 25 17 17 23 14 13 11 15 7 12 9 22 26 37 42 47 49 50 45 50 47 43 40 35 33 33 41
16 20 21 25 16 17 24 26 22 20 21 9 12 15 3 8 15 8 17 19 10 13 13 11 7 5 9 22 30 36 38 38 41 43 43 43 44 48 45 44 41 34 41 43
19 16 11 9 7 11 9 5 9 13 17 15 15 32 21 23 29 4 5 12 6 7 12 13 6 7 34 27 28 32 33 36 40 39 42 44 42 42 39 39 39 36 41 44
7 6 5 9 12 6 9 8 12 15 10 16 20 41 27 27 15 8 8 1 4 5 6 10 7 4 7 17 21 25 32 32 33 36 33 31 35 39 35 36 33 35 36 44
10 17 24 19 12 13 12 9 12 14 10 16 20 14 21 7 7 10 5 5 4 8 22 7 7 2 8 19 25 29 30 35 35 33 33 33 35 33 27 32 34 35 37 41
12 9 8 9 11 4 11 14 9 5 19 4 14 10 7 10 12 6 5 7 8 10 6 4 4 12 25 22 28 28 31 33 33 33 32 32 34 32 27 32 33 33 43 49
9 9 7 9 11 10 6 13 4 10 10 16 9 7 12 14 12 7 7 8 8 3 5 5 12 19 18 24 29 26 30 32 32 33 32 34 36 37 36 30 31 40 44 42
10 11 8 14 17 14 21 13 5 15 19 28 21 18 13 8 5 5 6 5 4 5 7 13 22 20 19 26 26 25 29 31 31 33 33 35 36 37 37 37 34 38 43 51
10 13 17 25 21 13 16 10 10 16 21 23 14 5 5 9 5 4 5 6 6 5 11 23 18 17 21 25 24 24 26 29 28 30 32 33 35 35 37 38 39 37 34 47
10 15 21 26 32 20 11 9 6 16 24 5 5 6 5 7 6 5 4 6 11 20 23 19 15 18 19 17 20 20 23 25 29 27 29 32 34 33 37 38 38 40 34 39
Wind_Direction_850mb
342 343 344 345 343 346 358 356 292 345 346 267 245 354 1 357 0 348 322 296 292 299 321 310 302 298 303 324 26 336 336 301 287 279 291 294 289 286 285 285 278 259 285 271
340 343 342 345 349 347 350 328 298 329 345 329 4 21 329 302 358 350 340 303 318 334 303 296 286 306 318 335 356 28 8 296 312 298 297 260 281 302 308 294 125 269 288 276
337 340 341 344 348 344 346 311 304 348 347 52 358 0 295 307 142 318 303 308 302 286 279 277 281 294 300 312 318 80 323 270 265 274 283 303 297 295 295 302 289 278 269 289
333 338 341 344 347 352 345 288 23 10 313 33 337 299 308 294 294 129 322 299 304 324 313 297 300 292 312 313 302 286 268 267 269 275 283 283 287 286 292 287 287 284 289 281
331 336 341 344 348 358 351 346 348 336 290 274 296 281 274 298 302 324 307 306 305 324 302 296 299 304 300 299 298 290 286 280 282 281 288 284 279 284 288 282 280 278 276 275
328 334 340 345 348 2 343 346 325 297 296 285 248 288 343 313 314 289 299 298 305 298 304 321 306 288 281 274 279 278 279 275 277 277 284 288 282 284 283 290 305 342 333 335
325 330 335 343 349 355 355 334 327 304 299 301 305 319 296 291 292 298 302 303 292 290 320 312 292 274 267 259 256 249 253 257 262 270 284 276 273 273 342 339 305 333 329 332
321 325 329 333 346 341 334 349 332 318 305 312 304 319 320 308 285 271 270 276 281 352 314 294 279 295 273 247 232 230 221 243 275 259 263 279 292 336 360 352 307 327 340 340
316 320 324 328 333 341 312 340 327 310 294 222 339 314 296 286 282 288 286 91 345 322 286 278 283 284 296 298 288 226 60 269 273 277 271 279 299 169 313 314 286 43 324 308
309 314 316 319 323 333 339 323 326 312 294 284 322 315 321 314 299 290 291 296 300 204 276 265 270 290 318 311 316 324 303 285 249 270 286 290 15 352 329 278 318 324 321 318
303 306 309 314 316 324 341 302 310 317 300 286 284 296 281 269 252 264 331 309 177 274 256 287 304 313 332 313 311 307 298 296 291 302 298 284 180 316 304 331 328 329 316 311
297 300 301 300 297 298 308 307 307 299 281 271 286 280 270 257 256 274 279 281 297 308 314 316 328 308 292 285 284 290 308 331 201 248 281 281 343 322 339 329 318 312 314 309
295 297 299 299 295 285 282 288 300 297 297 306 285 278 291 242 245 237 244 258 307 306 341 326 317 302 312 293 297 315 312 321 314 306 304 318 330 322 326 330 326 326 315 310
289 297 299 305 303 304 299 285 286 289 301 290 306 355 281 249 250 236 237 244 276 302 308 314 287 284 305 297 307 299 293 301 296 299 296 329 315 317 322 320 317 318 318 320
291 291 286 282 283 298 297 289 272 262 250 301 301 303 292 258 249 234 226 230 238 251 267 257 270 270 281 275 275 274 286 313 304 298 312 304 306 311 311 308 304 303 302 314
285 285 286 286 290 296 320 303 88 220 230 296 310 310 273 244 236 227 211 216 223 235 257 267 254 260 273 279 284 297 303 315 318 307 309 304 297 300 300 299 303 302 302 306
281 283 281 282 284 281 266 273 353 127 330 280 294 288 203 214 185 192 196 204 205 215 220 242 250 254 233 262 268 284 306 317 311 312 308 301 308 305 308 302 306 300 301 308
284 293 293 290 285 279 273 268 256 260 274 258 270 272 252 204 214 199 198 197 199 212 232 256 256 244 208 254 268 305 322 317 318 317 317 305 297 305 334 335 329 330 327 324
304 299 299 294 269 255 245 252 264 228 222 253 249 274 339 262 284 203 185 190 195 228 204 217 203 190 227 248 293 309 309 314 306 318 315 330 342 338 340 338 335 326 321 321
302 309 232 245 226 268 275 233 212 212 209 232 254 261 271 277 292 289 175 194 220 199 217 137 216 245 251 272 280 311 316 316 328 328 338 347 343 341 339 338 338 342 333 330
277 257 265 341 323 262 221 221 218 179 219 219 242 236 250 256 272 293 298 342 212 245 168 201 203 228 272 306 327 326 333 335 350 348 343 348 342 337 341 339 341 336 332 336
278 298 294 279 244 226 231 209 203 204 242 187 223 216 212 215 221 226 309 282 296 251 171 216 158 328 353 10 344 343 355 2 355 356 357 353 349 354 3 356 350 355 348 353
287 249 247 217 231 280 235 234 211 239 350 174 203 195 186 214 207 225 193 238 243 216 187 115 70 35 23 357 358 4 7 5 7 8 7 5 1 13 21 13 2 3 1 1
245 238 241 240 210 232 319 336 351 294 318 296 257 253 217 192 190 204 215 230 258 256 104 92 69 39 13 353 18 11 10 12 13 13 10 10 11 13 14 15 17 11 12 4
252 244 239 227 267 218 252 280 281 262 254 266 278 230 215 216 207 228 224 242 249 39 80 77 54 33 8 359 23 13 13 14 14 14 14 13 16 20 18 18 15 12 14 13
243 245 265 280 281 334 337 320 317 260 266 266 274 314 268 230 180 164 204 274 86 109 80 66 55 31 17 12 18 14 14 16 14 14 17 16 20 21 22 22 21 18 22 15
240 241 258 269 279 283 294 267 231 276 280 345 330 308 290 342 251 229 181 86 130 99 79 75 47 28 6 19 13 15 14 16 16 12 19 20 22 22 21 23 26 24 21 20